Home > Time Zones > World Clock > Weather > Macau > Macau > Past weeks

Flag for Macau Weather past 2 weeks in Macau, Macau

Now
63 °F

Clear.


Feels Like: 63 °F
Forecast: 58 / 67 °F
Wind: 5 mph from Southeast

Location: Taipa

Current Time: Jan 29, 2015 at 9:05:58 PM

Latest Report: Jan 29, 2015 at 8:30 PM


Visibility: 10 mi

Pressure: 30.09 "Hg

Humidity: 88%

Dew point: 59 °F

Location of MacauLocation

Historic Weather in Macau — Graph

°F

Macau temperature yesterday

Maximum temperature yesterday: 64 °F (at 12:00 AM)
Minimum temperature yesterday: 61 °F (at 6:30 PM)
Average temperature yesterday: 63 °F

Past Weeks' High & Low Weather Summary

 TemperatureHumidityPressure
High70 °F (Jan 26, 12:30 PM)100% (Jan 27, 7:30 AM)30.30 "Hg (Jan 27, 7:30 AM)
Low50 °F (Jan 15, 7:30 AM)43% (Jan 19, 2:00 PM)29.98 "Hg (Jan 27, 3:30 PM)
Average62 °F75%30.13 "Hg
* Reported Jan 14 8:00 PM — Jan 29 8:00 PM, Macau, Weather by CustomWeather, © 2014

Note: Actual official high and low records may vary slightly from our data, if they occured in-between our weather recording intervals... More about our weather records

Advertising

Macau weather history for previous 24 hours

 ConditionsComfort  
Time TempWeatherWind HumidityBarometerVisibility
8:00 PM
Jan 29
63 °FPassing clouds.5 mph88%30.09 "HgN/A
7:30 PM63 °FClear.5 mph88%30.07 "Hg10 mi
7:00 PM63 °FClear.7 mph88%30.07 "Hg10 mi
6:30 PM63 °FClear.6 mph88%30.07 "Hg10 mi
6:00 PM63 °FSunny.5 mph83%30.07 "Hg10 mi
5:30 PM64 °FSunny.6 mph78%30.07 "Hg10 mi
5:00 PM64 °FSunny.7 mph78%30.07 "Hg10 mi
4:30 PM64 °FSunny.8 mph78%30.07 "Hg10 mi
4:00 PM64 °FSunny.8 mph78%30.07 "Hg10 mi
3:30 PM64 °FSunny.9 mph78%30.07 "Hg10 mi
3:00 PM64 °FSunny.10 mph78%30.07 "Hg10 mi
2:30 PM64 °FSunny.9 mph78%30.07 "Hg10 mi
2:00 PM66 °FPassing clouds.9 mph73%30.09 "HgN/A
1:30 PM66 °FPassing clouds.10 mph73%30.09 "HgN/A
1:00 PM64 °FPassing clouds.14 mph78%30.09 "HgN/A
12:30 PM64 °FSunny.14 mph78%30.12 "Hg10 mi
12:00 PM64 °FPassing clouds.13 mph78%30.12 "HgN/A
11:30 AM64 °FPassing clouds.14 mph78%30.12 "HgN/A
11:00 AM64 °FSunny.15 mph78%30.15 "Hg10 mi
10:30 AM63 °FPassing clouds.14 mph83%30.15 "HgN/A
10:00 AM63 °FPassing clouds.14 mph77%30.12 "HgN/A
9:30 AM63 °FPassing clouds.10 mph83%30.12 "HgN/A
9:00 AM63 °FPassing clouds.12 mph77%30.12 "HgN/A
8:30 AM61 °FSunny.13 mph83%30.09 "Hg10 mi
8:00 AM61 °FPassing clouds.13 mph83%30.09 "HgN/A
7:30 AM61 °FPassing clouds.9 mph83%30.09 "HgN/A
7:00 AM61 °FPassing clouds.10 mph83%30.09 "HgN/A
6:30 AM61 °FPassing clouds.12 mph83%30.09 "HgN/A
6:00 AM61 °FPassing clouds.9 mph83%30.07 "HgN/A
5:30 AM61 °FPassing clouds.8 mph83%30.07 "HgN/A
5:00 AM61 °FPassing clouds.12 mph83%30.07 "HgN/A
4:30 AM61 °FPassing clouds.13 mph83%30.07 "HgN/A
4:00 AM61 °FPassing clouds.14 mph83%30.07 "HgN/A
3:30 AM61 °FPassing clouds.16 mph83%30.07 "HgN/A
3:00 AM61 °FPassing clouds.15 mph83%30.07 "HgN/A
2:30 AM61 °FPassing clouds.17 mph83%30.07 "HgN/A
2:00 AM63 °FPassing clouds.18 mph77%30.07 "HgN/A
1:30 AM63 °FPassing clouds.20 mph77%30.07 "HgN/A
1:00 AM63 °FPassing clouds.18 mph77%30.07 "HgN/A
12:30 AM63 °FPassing clouds.16 mph77%30.09 "HgN/A
12:00 AM63 °FPassing clouds.16 mph77%30.09 "HgN/A
11:30 PM
Jan 28
63 °FPassing clouds.18 mph77%30.09 "HgN/A
11:00 PM63 °FPassing clouds.16 mph77%30.09 "HgN/A
10:30 PM63 °FPassing clouds.17 mph77%30.09 "HgN/A
10:00 PM63 °FPassing clouds.16 mph77%30.09 "HgN/A
9:30 PM63 °FPassing clouds.15 mph77%30.09 "HgN/A
9:00 PM63 °FPassing clouds.15 mph77%30.09 "HgN/A
Weather by CustomWeather, © 2014

See weather overviewHow to use our weather pages